Theta_e
324 323 324 323 324 325 325 324 324 323 324 322 322 321 320 319 317 317 316 314 312 309 308 306 304 303 301 300 300 298 298 297 296 295 295 294 296 299 306 311 314 316 318 320 321 322 323 323 324 324 326 325 323 323 324 323 321 321 321 321 321 320 320 319 319 318 318 317 317 316 317 317 317 317 318 318 318 319 319 320 320 321 322 323 323
323 322 322 320 320 320 320 320 320 322 322 320 320 319 317 317 315 314 314 312 309 307 306 304 303 302 301 300 298 297 296 295 294 294 294 294 294 294 299 304 309 313 315 317 319 320 321 321 321 321 322 323 323 322 321 321 320 319 319 318 318 317 317 316 316 316 315 315 315 315 315 315 315 315 315 316 316 316 317 317 318 318 319 320 321
323 321 320 320 319 318 316 316 316 316 316 315 314 314 314 313 313 313 312 310 307 306 304 302 301 300 300 298 297 296 294 293 293 293 292 292 292 293 294 297 302 307 311 315 316 317 318 319 320 321 321 321 322 322 321 320 320 319 318 318 317 317 316 314 314 314 313 313 313 313 313 313 313 313 313 314 314 314 315 315 316 316 316 317 318
321 320 319 316 314 313 311 311 309 310 310 310 309 310 310 310 311 311 310 307 305 304 302 300 299 298 298 296 296 294 293 292 292 292 291 291 291 291 292 292 295 300 305 310 314 315 315 316 316 318 320 321 321 321 319 318 317 317 316 315 315 315 314 313 312 312 312 312 311 312 312 312 312 312 312 313 313 313 313 314 314 314 315 315 316
317 315 313 311 309 307 305 306 306 306 306 306 307 307 309 309 309 309 308 305 303 301 301 298 297 296 295 294 293 292 292 292 291 291 290 290 290 290 291 291 291 293 297 303 307 311 312 313 313 313 315 317 318 319 319 318 317 316 316 316 315 315 314 313 312 312 313 312 312 311 311 312 312 312 312 312 312 312 311 312 312 313 313 314 314
313 312 311 307 306 304 303 303 304 304 304 305 306 307 306 307 306 305 304 302 300 298 296 294 293 293 292 292 291 290 290 290 290 290 290 289 289 290 290 290 290 290 291 295 300 305 309 310 310 310 311 312 313 316 316 317 316 315 315 315 314 314 314 313 312 312 312 311 311 310 310 310 311 311 311 311 311 312 311 311 311 311 312 313 313
311 309 307 305 303 302 302 301 301 302 301 302 303 304 305 304 303 301 300 298 297 295 294 293 291 290 290 290 289 289 289 289 289 289 288 289 289 289 289 289 289 289 290 290 293 298 302 305 307 307 308 309 311 312 313 314 314 314 315 314 314 313 312 311 311 311 310 310 309 309 309 309 309 309 310 310 311 311 311 311 311 311 311 312 312
309 308 305 303 302 300 300 299 299 299 300 301 302 302 302 301 301 300 296 294 293 292 292 291 290 289 289 289 289 289 288 288 288 288 288 288 288 288 288 288 288 288 288 288 289 292 296 299 302 304 304 306 308 309 312 312 312 312 312 313 312 311 311 310 309 310 309 308 307 307 308 308 308 308 308 309 310 310 310 310 310 310 311 311 312
306 305 303 301 300 298 298 298 298 298 298 299 300 301 300 300 299 299 296 293 292 291 290 290 289 289 288 288 288 288 288 288 288 287 288 287 287 287 287 287 287 287 287 288 288 288 291 293 295 298 299 302 304 306 308 310 310 311 312 312 312 311 310 307 307 307 307 306 306 306 306 306 307 306 307 307 307 309 309 309 309 309 309 310 310
304 304 301 299 298 297 296 296 296 296 296 298 299 300 300 298 296 296 295 293 291 290 288 288 289 288 287 287 287 287 287 287 287 288 287 286 286 286 286 286 287 287 287 287 288 288 288 289 290 291 293 297 301 303 305 307 308 309 310 310 309 309 307 306 306 306 305 305 305 306 306 306 306 307 307 307 306 306 306 307 308 308 308 309 309
300 299 297 296 295 294 294 294 295 296 297 297 298 298 298 297 295 294 294 293 291 290 288 288 288 287 287 286 287 286 287 287 286 286 286 287 286 286 286 286 286 286 286 287 287 287 287 287 286 286 287 292 296 299 301 303 305 308 309 309 308 308 308 306 306 306 305 305 306 306 306 306 306 306 306 306 306 306 307 307 307 306 306 307 308
297 297 296 295 294 293 293 294 295 298 297 297 296 296 295 294 293 292 290 290 290 289 289 288 288 287 287 287 287 287 286 286 286 285 286 286 286 286 285 285 285 286 286 286 286 286 286 286 286 285 285 287 290 293 295 297 300 305 307 308 309 308 308 306 306 306 305 306 306 305 305 305 305 305 306 306 306 307 307 307 307 307 307 307 308
295 295 294 294 293 292 293 294 296 298 298 297 297 296 296 294 293 292 290 289 289 290 290 290 287 286 288 287 286 287 287 286 285 285 285 285 285 285 285 285 285 285 285 286 286 286 285 285 285 285 284 285 285 287 290 292 294 301 304 304 307 308 307 307 306 305 305 305 305 305 305 305 305 305 305 305 306 306 306 307 307 307 307 307 307
294 294 293 293 292 292 293 293 295 295 295 295 295 295 294 293 292 290 292 290 288 290 290 292 288 286 285 285 287 289 288 286 285 284 285 285 285 285 285 285 284 285 285 285 285 285 285 285 285 284 284 284 284 284 285 286 289 295 300 301 304 305 307 306 305 305 304 304 304 305 305 305 305 305 305 305 305 306 306 306 306 307 307 307 307
293 292 291 291 292 292 292 292 293 293 293 293 294 294 294 293 293 291 288 289 288 287 289 289 289 289 289 286 284 284 286 286 287 285 284 284 285 285 285 284 284 284 285 285 284 284 284 284 284 284 283 283 283 283 284 284 286 290 294 296 298 302 304 305 305 305 304 303 304 304 304 304 305 305 305 305 305 305 305 305 306 306 306 307 307
291 291 291 291 291 291 291 292 292 294 294 292 293 293 293 294 293 292 291 288 289 288 287 286 290 290 288 291 288 287 281 282 283 284 284 283 284 283 284 284 284 284 285 284 284 284 284 284 283 283 283 282 282 282 283 283 285 287 289 292 294 298 301 303 304 304 305 304 303 303 304 303 304 304 304 304 305 305 305 305 305 305 306 305 306
290 290 290 290 290 290 290 291 291 292 294 293 292 292 293 293 293 292 293 291 287 286 286 286 289 286 292 285 285 287 286 283 284 282 285 284 283 284 284 284 284 284 284 283 284 284 283 283 283 283 282 282 282 282 282 283 284 286 288 290 292 294 296 300 303 303 303 303 303 302 303 302 302 303 303 303 304 304 304 305 305 304 305 304 304
288 288 289 289 289 289 289 289 290 290 292 292 291 290 290 291 293 294 293 294 290 286 286 285 285 286 286 287 290 290 283 284 284 280 283 283 283 283 283 283 283 284 284 283 284 284 284 283 283 282 282 282 281 281 281 282 283 284 287 290 293 294 294 296 299 300 301 301 302 302 302 302 301 301 302 302 303 303 303 304 304 304 305 305 305
287 288 288 288 288 288 288 289 289 289 289 288 288 289 290 290 288 290 291 289 290 289 287 285 285 285 285 285 285 284 289 285 283 282 280 282 284 283 283 283 283 283 283 283 283 283 283 283 282 282 281 281 281 281 281 281 282 284 287 290 293 294 294 294 294 296 298 299 301 301 301 302 301 301 301 301 302 302 302 303 303 303 304 305 304
287 287 287 287 287 287 287 287 287 287 287 288 288 287 287 287 287 288 288 289 291 288 286 285 287 284 285 284 284 285 284 286 287 286 283 280 280 281 282 282 282 282 283 283 282 283 282 282 282 282 281 281 281 280 281 281 281 283 285 289 292 293 293 293 293 293 294 296 299 299 300 300 301 301 300 301 301 302 302 302 303 304 303 304 304
286 286 286 286 286 286 286 286 286 286 286 286 286 286 286 286 285 286 287 286 288 288 286 285 286 284 283 283 284 284 283 284 283 286 285 282 280 282 281 282 282 282 282 283 282 282 282 282 282 281 281 281 280 280 280 280 281 283 285 287 290 292 293 293 292 292 292 293 294 296 299 300 300 301 301 301 301 302 302 302 302 303 303 303 303
285 285 285 286 285 286 286 286 286 285 285 285 285 285 285 286 286 286 286 286 285 287 287 285 286 285 286 286 286 284 285 285 284 282 283 285 282 281 281 282 280 282 283 283 283 282 282 282 281 281 281 280 280 280 280 280 280 283 284 284 287 290 291 291 292 292 292 293 293 294 296 297 298 299 300 300 301 301 301 301 301 301 301 301 302
284 284 284 284 284 285 285 285 285 285 284 284 284 284 284 284 284 284 285 285 285 285 285 285 285 285 285 286 285 286 285 283 283 284 283 281 280 280 280 281 281 281 283 282 283 282 282 282 281 280 280 279 279 279 279 279 279 283 283 283 284 286 288 290 291 291 292 293 292 293 293 293 294 296 298 299 300 301 300 300 300 300 300 301 302
284 284 284 284 284 284 284 284 284 284 283 284 283 283 283 283 284 284 284 284 284 284 284 284 284 284 284 284 284 284 284 285 285 284 284 283 282 280 280 280 279 281 282 282 282 282 282 281 280 280 279 279 279 279 279 279 279 282 282 281 283 285 287 289 291 291 292 291 292 292 292 293 293 293 295 297 298 300 300 299 299 299 300 300 301
283 283 283 283 283 283 283 283 283 283 283 283 283 283 283 283 283 283 283 284 283 284 284 283 284 284 283 282 283 283 283 283 284 284 283 282 283 280 280 279 279 280 281 281 280 281 281 280 280 279 279 279 279 279 279 279 279 281 282 279 281 283 284 286 289 290 291 290 290 291 292 291 292 293 294 295 296 298 299 299 298 298 299 299 298
283 283 283 283 283 283 283 283 283 283 283 282 283 283 283 282 283 282 282 282 282 283 282 282 282 282 282 282 282 282 282 282 282 283 282 282 281 280 279 280 279 279 280 280 280 279 280 279 279 279 279 279 278 278 279 279 279 281 281 279 279 281 283 285 288 289 290 290 290 290 290 289 291 292 292 295 296 296 298 299 299 298 298 298 298
283 283 283 283 283 282 282 282 282 282 282 282 283 282 282 282 282 281 281 281 281 281 281 281 281 281 281 281 281 281 282 282 282 282 282 283 283 281 280 278 277 279 278 279 279 279 280 280 279 279 279 279 278 278 279 279 278 280 280 279 278 279 281 285 288 289 289 289 289 289 289 289 290 291 291 292 294 294 296 297 298 298 298 297 297
283 282 282 282 282 282 282 282 282 282 282 282 282 282 282 281 281 281 280 281 281 281 281 281 280 281 280 281 281 280 281 281 282 281 282 282 283 282 281 280 278 278 278 278 278 279 280 280 280 279 278 278 278 278 278 278 278 280 279 279 278 278 280 284 287 288 288 287 288 288 288 288 289 290 290 291 291 292 292 293 294 294 293 293 293
283 282 282 282 282 282 282 281 282 282 282 282 282 281 281 281 281 280 280 280 281 280 280 280 280 280 280 280 280 280 280 280 280 281 281 281 282 281 281 280 281 278 277 276 278 278 279 279 279 279 278 278 278 279 278 278 278 279 279 278 278 278 279 283 285 286 286 287 287 287 288 288 289 289 289 290 290 290 291 291 291 292 292 293 293
282 282 282 282 282 282 282 281 281 282 281 281 281 281 281 281 281 280 280 280 280 280 280 280 279 280 279 279 279 279 279 279 279 280 280 280 280 280 280 280 280 279 278 277 277 279 278 279 279 279 279 278 278 278 278 277 278 278 278 278 278 278 280 282 283 284 285 286 286 286 288 288 288 288 289 289 289 290 290 290 291 291 292 293 294
282 282 281 281 281 281 281 281 281 281 281 280 280 280 280 279 279 279 279 280 279 279 279 279 278 278 278 278 278 278 278 278 278 279 279 279 280 279 279 280 279 280 278 278 275 278 279 278 279 278 276 277 277 277 277 278 278 278 278 278 278 279 279 279 280 282 283 284 284 286 287 287 288 288 288 287 288 289 290 290 290 290 291 291 292
282 281 281 281 281 281 281 281 281 280 280 280 280 279 279 279 279 279 279 279 278 278 278 278 278 278 278 277 277 277 277 278 278 278 278 278 278 278 278 279 278 278 278 277 276 276 279 277 278 278 277 276 277 276 277 277 277 277 278 278 278 278 278 278 279 280 281 282 284 285 286 287 287 287 287 286 286 288 288 289 289 289 289 289 290
281 281 281 281 281 281 280 280 280 279 279 279 279 279 279 278 278 278 278 278 278 278 278 277 277 277 277 277 276 276 277 277 277 277 277 277 277 277 277 277 277 277 277 276 275 275 276 278 277 276 277 277 276 277 276 276 277 277 278 278 278 278 278 278 278 279 280 281 283 284 285 285 286 286 285 285 285 287 287 288 288 288 288 288 288
281 281 281 280 280 280 280 280 279 279 279 279 278 278 278 278 277 278 278 278 277 277 277 276 276 276 276 276 276 276 276 276 276 276 277 276 276 276 276 276 276 275 276 275 275 274 274 276 276 277 276 276 274 277 275 275 276 277 277 277 278 278 278 278 278 278 279 280 282 283 284 284 285 285 284 284 285 287 287 287 286 286 287 287 287
281 280 280 280 279 280 279 279 279 278 279 278 278 277 278 278 277 277 277 277 277 276 276 276 276 276 275 276 276 275 275 275 275 276 276 276 276 276 275 276 275 275 275 275 274 273 273 273 275 274 275 275 275 275 276 276 276 277 276 277 277 277 278 278 278 278 279 280 282 282 282 283 283 283 283 284 284 285 285 285 285 285 285 285 285
280 280 280 279 279 279 279 279 278 278 278 278 277 277 278 278 277 277 277 277 277 277 277 276 275 275 275 275 275 275 275 275 275 275 275 275 275 275 275 275 275 274 275 275 275 274 273 272 274 274 274 274 274 275 276 276 276 276 277 277 277 277 277 277 277 277 278 280 280 280 280 281 281 281 282 283 283 284 284 284 284 284 284 283 283
280 279 279 279 279 279 279 279 278 278 278 277 277 277 277 278 277 277 277 277 277 277 276 276 276 275 276 276 276 275 275 275 274 274 275 274 275 274 274 274 274 274 274 274 274 274 273 272 273 274 274 274 275 275 276 275 276 277 277 276 276 276 276 277 277 277 278 278 278 278 278 279 279 280 281 282 282 283 283 282 282 282 282 282 281
279 279 279 279 279 279 279 279 278 278 278 277 277 277 277 277 277 277 277 276 276 276 276 276 276 276 276 276 275 275 275 275 275 274 274 274 274 274 274 274 274 274 274 274 274 273 273 273 273 272 274 273 273 275 276 276 275 275 275 276 276 276 275 275 276 276 276 275 275 275 276 277 277 278 279 280 281 281 281 281 281 281 280 280 280
279 279 279 279 279 279 278 278 278 278 277 277 277 276 276 276 276 276 276 276 276 276 276 276 276 276 276 276 275 275 275 275 275 274 274 274 273 273 274 273 274 273 273 273 273 273 273 272 272 273 272 273 274 273 276 277 276 275 274 274 274 275 275 275 274 275 276 275 276 276 276 276 277 275 276 278 279 279 279 279 279 279 278 279 281
279 279 278 278 278 278 278 278 278 277 277 277 276 276 276 276 276 276 276 276 276 276 275 276 276 275 275 275 275 275 275 275 275 275 275 274 274 273 274 273 273 273 273 273 272 272 272 272 272 272 272 272 273 275 276 276 274 274 275 273 271 272 274 275 274 273 274 274 274 274 274 274 274 274 275 276 276 277 277 277 277 277 277 280 281
279 279 279 279 278 277 277 277 277 277 277 276 276 276 275 276 276 276 276 276 276 275 275 275 275 275 275 275 275 275 275 275 276 276 275 275 274 273 273 273 273 273 272 272 272 272 271 271 271 272 272 272 273 274 274 274 273 273 274 274 272 273 274 273 274 274 274 273 273 273 272 272 272 272 272 272 273 274 274 275 275 275 278 281 282
279 279 279 278 278 277 277 277 276 276 276 276 277 279 278 276 276 276 276 276 276 276 275 275 275 275 274 275 274 275 276 276 277 278 278 278 277 275 274 273 272 272 270 270 270 270 271 270 270 271 271 271 273 274 274 274 275 275 273 273 271 272 273 272 272 273 273 272 271 270 271 272 271 271 271 271 272 273 273 273 273 276 278 280 282
279 278 278 278 277 277 277 276 276 276 276 276 279 281 281 280 277 277 276 276 276 276 276 275 275 275 274 275 274 275 276 277 277 278 279 279 279 278 277 276 275 272 269 269 269 270 269 269 271 270 271 271 273 275 275 274 274 274 273 273 272 272 270 268 267 270 274 272 270 269 269 271 271 269 270 271 271 272 273 273 276 278 279 281 281
278 278 278 278 278 277 277 276 276 275 276 278 281 282 282 282 280 277 277 276 276 276 276 275 275 275 274 274 274 274 275 276 276 277 278 280 280 280 280 279 278 278 276 272 270 269 269 269 270 271 271 272 274 275 274 274 273 273 273 273 272 271 269 268 268 267 272 273 269 268 268 271 270 270 269 270 271 272 272 274 277 278 280 280 280
278 278 278 278 277 277 276 276 275 276 275 280 281 283 283 283 282 279 277 277 276 276 276 275 275 275 274 274 274 273 273 275 275 275 275 276 279 280 281 281 281 280 280 280 278 275 273 271 272 272 273 274 274 275 275 274 275 273 273 272 272 271 271 269 269 269 270 272 269 267 266 269 270 269 268 270 271 271 271 274 276 278 279 279 280
278 278 278 278 277 276 276 276 276 276 275 279 282 283 284 284 284 281 277 277 277 276 276 275 275 275 274 273 273 273 273 273 274 274 274 274 275 275 277 278 279 279 281 281 281 281 279 275 274 273 275 276 275 276 276 276 274 272 272 271 272 270 269 269 270 270 271 271 268 267 265 267 269 268 268 269 271 271 271 273 276 277 278 278 279
278 278 278 277 277 277 277 276 276 275 275 280 283 284 285 285 285 283 277 277 276 276 276 275 275 275 274 273 273 273 273 272 273 274 273 273 272 272 272 272 273 274 275 275 277 278 279 279 278 276 277 277 277 277 276 276 275 275 274 272 271 270 270 270 269 270 269 270 269 267 263 267 269 267 268 269 270 270 271 273 275 276 276 277 278
279 278 278 278 277 277 277 276 276 275 275 281 283 284 285 286 286 284 279 277 276 275 275 275 275 274 274 274 273 273 273 272 274 276 276 273 271 269 269 269 270 271 272 274 276 277 277 276 277 277 277 278 278 277 277 276 276 276 274 273 271 270 267 266 265 266 266 268 269 266 264 265 268 267 267 269 269 269 270 270 273 275 275 276 277
278 278 278 278 278 277 277 276 276 276 276 280 283 284 285 286 286 283 281 278 277 276 275 275 274 274 273 273 273 273 273 273 274 277 279 277 271 268 268 268 268 268 269 271 275 277 278 279 279 280 280 280 280 281 281 281 279 277 273 271 269 267 265 264 264 264 265 267 268 268 266 264 267 267 266 268 268 268 268 269 270 273 274 275 275
278 278 278 277 277 277 277 276 276 276 276 278 282 284 285 286 285 283 282 279 278 277 277 276 274 274 274 274 274 273 272 272 275 277 279 278 274 271 269 268 268 267 269 271 271 272 276 278 279 280 280 281 281 282 281 279 277 276 272 269 269 267 265 265 263 264 265 266 266 268 265 264 266 267 265 266 267 267 268 269 270 271 272 272 273
278 278 278 277 277 277 277 277 278 277 277 278 282 283 284 286 285 283 282 280 279 278 277 277 276 275 274 275 275 274 274 274 276 277 279 278 276 274 272 271 270 269 270 272 271 271 272 273 274 276 277 279 279 276 274 276 276 274 273 271 269 267 265 265 264 263 262 264 267 269 264 265 265 266 265 262 262 265 267 268 268 268 269 269 269
Wind_Speed
7 6 5 5 5 3 6 5 6 7 6 6 6 7 6 6 8 7 7 7 8 10 9 9 8 9 10 10 10 9 9 9 9 9 9 9 9 14 22 22 23 23 23 23 24 24 23 23 23 23 24 25 25 24 24 25 25 26 27 26 25 24 24 25 24 24 23 24 25 25 25 25 25 26 26 26 26 26 26 27 27 27 27 27 26
7 6 7 6 6 5 6 6 5 6 6 8 5 7 8 7 7 8 8 7 8 9 10 10 10 9 9 10 9 9 8 8 9 8 8 8 8 10 21 22 23 23 24 24 24 24 24 23 23 23 23 24 24 24 24 24 23 23 23 24 24 25 24 24 24 25 25 25 24 25 25 25 26 26 26 26 26 26 26 26 26 27 28 27 26
7 8 6 7 7 5 5 5 6 5 5 7 6 6 6 7 6 7 7 8 8 8 9 10 10 10 9 10 9 8 8 8 8 8 9 8 7 8 11 21 22 23 23 24 24 24 25 24 24 24 24 24 24 24 24 24 25 25 25 25 25 25 24 24 24 25 24 24 24 24 25 25 25 25 26 26 26 25 26 26 26 25 26 27 28
8 7 7 5 5 5 5 6 6 5 5 7 6 6 8 7 8 8 9 8 8 9 9 10 10 9 9 10 8 8 8 7 8 8 8 8 7 8 8 9 18 21 22 23 24 24 24 25 24 24 23 23 23 23 23 24 24 24 24 24 24 24 24 24 24 24 24 24 24 24 24 25 25 25 25 26 26 26 26 26 26 26 26 26 26
7 7 7 7 6 7 6 6 5 6 5 8 9 7 8 9 8 8 9 8 9 10 9 9 10 9 9 9 8 9 7 7 8 8 8 8 7 7 7 8 8 15 20 22 23 23 24 24 24 24 24 24 23 23 23 22 22 22 22 22 22 22 22 22 23 23 23 23 23 23 23 23 23 24 24 24 26 26 26 27 27 27 27 27 27
9 6 4 6 5 6 7 6 6 7 6 6 7 7 8 9 7 8 7 8 9 9 9 10 8 8 8 8 8 7 6 8 7 7 7 8 7 8 7 7 8 8 8 18 21 22 23 24 24 24 24 24 23 23 22 22 22 22 22 22 22 23 23 23 23 23 23 23 23 23 23 23 23 23 23 24 24 25 26 26 27 27 27 27 27
5 8 6 6 6 6 6 5 5 6 6 4 7 6 6 7 7 9 7 9 9 7 9 9 9 8 7 7 7 7 7 8 7 7 8 7 7 7 7 7 7 7 7 7 12 21 22 23 23 24 24 23 23 23 23 23 22 22 22 22 22 22 23 22 23 23 23 23 23 23 23 24 24 24 24 24 25 25 26 26 26 26 27 26 27
5 6 7 6 6 6 5 5 5 6 7 7 6 7 7 7 4 8 11 9 10 8 7 10 9 9 7 7 7 6 7 7 7 8 6 6 7 7 7 7 8 7 7 7 7 12 21 21 22 23 24 24 24 23 23 23 22 21 22 22 22 22 22 22 23 23 23 23 23 23 23 23 23 24 24 24 24 25 25 25 25 25 25 26 26
5 6 8 7 6 6 5 6 5 6 6 6 6 6 8 7 7 5 12 10 11 11 9 9 9 8 7 8 7 7 7 6 7 6 5 8 8 8 8 8 8 8 7 6 6 6 14 20 20 22 23 23 23 23 23 22 22 21 21 21 21 22 22 22 22 22 22 22 23 23 23 23 23 24 24 24 24 24 25 25 26 26 26 26 26
6 6 7 6 6 6 6 6 5 5 7 6 7 6 7 10 10 7 8 11 10 10 10 9 8 8 8 8 7 7 7 6 6 5 7 8 8 8 7 6 7 7 7 7 7 7 7 12 17 18 22 22 22 22 22 22 22 21 21 21 21 21 22 22 22 22 22 23 23 23 23 23 24 24 24 24 25 25 25 25 25 26 26 26 26
5 5 8 7 7 6 6 5 5 7 8 8 8 8 8 8 12 9 6 7 10 9 10 9 9 8 8 8 7 8 6 6 6 6 7 7 7 6 6 7 7 7 6 7 6 7 8 7 8 8 11 21 21 22 21 21 21 21 22 22 22 22 22 22 22 22 22 22 22 23 23 23 23 24 24 25 25 26 26 27 27 27 26 26 27
4 4 7 7 7 6 6 5 6 7 9 10 8 9 12 12 11 13 12 9 8 9 9 11 10 10 9 8 7 7 8 6 7 7 6 6 5 5 6 5 6 6 6 6 6 7 7 7 7 7 7 12 20 19 20 20 21 21 22 22 22 22 21 21 21 21 21 21 22 22 22 22 23 23 24 25 25 26 26 26 27 28 28 28 28
4 5 7 8 6 6 7 5 5 7 8 9 9 10 9 11 11 8 14 13 8 6 6 7 12 9 7 7 7 7 7 7 8 6 6 5 4 5 5 6 5 6 5 5 6 7 6 7 6 7 8 7 9 15 17 18 20 21 22 22 22 21 21 21 21 21 21 22 22 22 23 23 24 25 25 25 25 26 27 27 27 27 28 28 28
5 5 6 6 8 6 6 7 6 6 7 8 9 10 11 10 11 10 3 10 8 5 5 2 5 8 9 6 6 4 4 6 7 7 5 5 4 5 5 6 6 5 4 5 6 6 6 6 6 7 7 7 7 7 8 10 13 20 20 21 21 21 21 21 21 22 22 22 22 23 23 24 25 25 26 26 26 26 27 27 27 27 27 28 28
5 6 6 5 7 7 7 6 7 9 10 9 10 10 9 12 10 12 9 3 4 0 1 3 5 4 6 8 5 4 2 4 4 6 5 4 4 5 5 5 6 5 4 5 5 5 5 6 6 7 7 7 6 6 7 8 11 16 18 20 21 21 21 21 21 21 22 22 23 23 24 24 24 25 26 26 27 27 28 28 28 27 28 28 28
6 6 5 5 7 8 7 7 7 6 10 11 10 10 9 9 8 9 11 10 4 3 2 2 4 10 5 0 3 3 5 2 3 3 2 4 5 5 4 4 5 4 4 5 5 4 4 5 6 6 6 6 6 6 7 6 11 12 14 18 21 21 21 21 21 21 22 22 23 23 23 24 24 25 25 26 26 27 27 28 28 28 28 29 28
6 5 5 7 6 7 7 7 7 6 7 10 10 10 9 8 10 10 10 12 7 3 1 0 2 4 4 5 3 3 2 5 5 4 1 2 4 3 4 4 4 4 4 4 3 4 3 4 5 5 6 6 7 7 7 8 8 9 10 14 19 19 20 20 20 21 21 22 22 22 23 23 25 25 26 27 27 28 28 28 28 29 29 28 29
4 5 5 6 7 7 8 8 7 6 7 8 9 8 8 10 10 10 9 7 10 5 4 2 3 2 2 2 1 2 7 5 2 4 2 2 1 3 4 4 3 3 3 3 3 3 3 4 4 5 6 6 6 7 7 8 9 8 8 12 20 18 18 19 20 20 21 22 22 23 23 24 25 26 26 27 28 28 29 29 29 29 29 30 30
4 4 5 5 6 6 7 7 7 6 6 7 8 9 8 9 6 5 7 7 8 8 8 5 4 4 3 3 4 3 7 9 3 6 5 2 1 2 3 3 3 3 3 3 2 2 3 3 4 5 5 5 6 7 7 7 9 9 11 18 18 18 18 18 18 19 21 22 23 23 24 25 26 26 27 28 28 29 29 30 29 29 29 30 31
4 5 4 5 6 6 6 6 7 6 6 7 8 6 5 3 3 5 6 6 7 10 8 7 7 3 1 3 6 5 5 5 5 4 5 8 5 1 0 1 1 2 2 2 2 2 3 3 3 4 4 6 6 6 6 7 6 7 8 17 18 18 18 18 18 18 19 21 23 23 24 25 26 27 28 28 29 29 29 29 28 29 29 29 30
3 4 4 5 4 6 6 6 7 6 5 5 5 6 7 8 7 6 7 4 3 7 9 6 7 7 6 3 5 5 4 4 3 3 4 5 4 3 3 1 1 0 1 1 1 2 2 3 3 4 4 5 6 6 6 6 6 6 9 16 18 18 18 19 18 18 19 20 22 23 24 25 26 27 28 28 29 29 29 29 29 29 29 29 29
3 3 4 4 5 5 5 6 6 6 5 6 7 6 6 6 7 6 6 7 3 6 8 6 5 6 3 6 5 3 4 3 4 4 4 3 5 5 4 4 3 2 0 1 1 2 3 3 3 4 4 4 5 5 6 6 6 5 9 16 16 17 18 18 18 18 19 20 21 23 24 25 26 27 28 28 29 29 30 30 30 30 30 30 30
3 3 3 4 4 3 4 5 4 5 6 6 6 6 5 5 5 5 5 6 4 6 7 5 4 4 5 5 6 6 5 4 5 2 3 3 4 3 2 3 2 3 3 1 1 1 2 3 3 3 3 4 3 4 5 5 5 7 10 13 16 16 17 18 18 18 19 20 21 22 23 24 26 26 27 28 28 29 30 30 31 31 30 30 29
3 4 4 3 4 4 4 5 5 5 5 5 5 5 5 5 5 4 4 5 5 6 6 6 5 5 4 2 3 2 1 4 4 3 4 4 5 5 4 2 2 3 0 1 0 1 2 3 2 2 2 2 3 3 3 3 4 10 9 11 15 17 17 18 18 18 19 20 21 22 23 24 24 25 26 27 27 29 30 30 31 31 31 30 30
5 6 5 5 4 5 5 5 5 5 5 6 6 6 5 5 5 5 5 5 4 5 5 5 4 4 3 2 2 2 2 3 3 4 2 3 5 5 2 2 1 1 0 1 2 1 2 2 3 2 2 2 3 3 3 4 5 9 11 8 14 15 17 17 17 18 19 19 20 21 22 22 23 24 25 26 27 29 30 31 31 31 31 31 31
7 6 5 5 4 3 5 6 6 6 6 7 6 6 5 6 6 6 5 4 4 6 7 6 6 6 4 4 3 3 3 2 2 3 4 4 3 4 4 2 1 0 1 1 1 1 2 2 2 2 2 3 3 3 4 4 5 9 12 8 9 14 17 17 18 19 19 19 20 20 21 21 22 24 25 26 27 29 30 31 32 32 32 32 32
7 5 5 5 5 5 5 7 6 6 6 6 6 6 6 6 6 6 5 4 5 6 6 7 6 6 5 4 5 4 3 2 1 2 1 0 3 4 3 3 1 1 1 1 1 4 2 2 3 1 2 2 3 4 4 5 6 10 11 7 7 13 17 18 19 19 19 19 19 20 20 21 22 23 25 26 27 28 29 30 32 33 33 33 33
6 6 5 5 5 6 6 7 7 6 6 6 6 6 6 7 6 5 6 3 7 8 7 7 7 7 7 5 5 4 2 2 2 2 2 1 2 2 1 2 1 1 1 2 1 1 2 2 1 2 2 2 3 3 4 5 5 12 9 7 7 9 16 18 19 19 19 19 19 19 20 21 22 24 25 26 27 27 28 29 30 31 31 32 33
6 6 6 5 5 6 7 7 6 6 6 6 6 6 5 5 6 6 6 6 6 7 6 7 6 6 6 6 5 5 3 3 2 2 2 2 2 2 1 1 1 1 0 1 1 1 0 2 1 1 2 2 3 3 4 5 8 10 7 7 8 8 13 18 19 18 18 19 19 19 20 21 22 23 24 25 26 27 28 29 30 30 32 33 33
7 6 6 7 6 7 7 7 6 6 6 6 6 5 5 4 3 3 3 5 6 5 4 6 6 5 6 5 4 4 3 3 3 2 2 2 3 2 2 1 0 2 1 1 2 1 1 2 2 1 1 2 3 4 4 5 8 9 7 7 7 8 15 17 18 18 18 18 19 19 20 20 22 23 23 24 25 27 28 28 29 30 31 33 34
8 8 7 7 7 6 6 7 6 7 6 6 6 5 4 4 3 3 3 3 5 5 4 5 5 6 6 7 4 4 3 4 3 3 2 3 3 3 2 2 1 1 3 2 1 1 2 3 1 1 1 3 4 5 4 5 6 9 7 7 7 11 15 12 16 17 17 17 18 18 20 21 22 22 23 24 26 27 28 28 29 29 30 31 31
8 8 7 7 7 8 6 7 7 7 7 6 6 6 5 3 4 4 4 4 5 6 5 3 4 5 7 6 5 5 4 4 3 3 3 3 3 3 3 3 2 1 2 3 4 5 2 1 3 2 1 3 5 5 6 5 5 8 6 7 8 12 8 7 12 15 16 17 17 18 20 21 21 21 22 24 25 27 28 28 29 29 29 29 30
8 8 8 8 8 7 8 7 7 7 8 7 6 6 5 5 4 4 5 5 6 5 5 6 4 5 5 6 5 4 5 5 4 4 4 4 3 3 3 3 3 3 3 3 4 5 3 1 3 2 2 4 4 3 7 7 7 6 6 7 8 7 7 7 8 11 14 16 16 18 20 20 21 21 22 24 25 27 27 27 27 27 28 28 28
8 9 9 8 7 8 8 7 7 7 7 7 7 6 6 6 5 4 5 6 6 5 5 6 5 3 5 6 6 5 5 5 5 5 4 4 4 5 4 4 3 3 3 4 3 2 5 1 3 3 2 1 4 4 5 9 9 7 8 7 6 7 6 7 7 7 13 14 16 18 20 20 21 21 23 24 25 26 26 26 26 27 27 27 27
7 7 8 8 8 8 7 7 7 7 7 7 6 6 6 7 7 7 6 6 7 7 6 6 6 6 5 5 6 5 3 5 5 4 4 4 4 4 4 4 4 4 4 3 3 3 5 4 2 3 2 2 4 6 7 7 8 8 9 8 7 6 5 6 7 7 11 14 16 17 19 20 20 21 23 24 24 24 25 25 25 26 26 27 27
9 7 7 8 8 8 8 7 7 7 7 7 6 6 7 8 7 7 7 6 5 5 6 6 6 6 6 6 6 6 5 5 5 4 4 4 4 4 4 4 4 4 4 4 4 4 3 4 3 2 2 5 4 5 7 7 8 7 7 8 7 6 6 6 7 7 8 14 16 16 17 18 19 20 22 24 23 24 24 24 24 25 26 26 27
8 8 7 7 8 8 8 9 8 8 8 8 8 7 6 6 6 5 6 6 6 6 6 6 6 6 7 6 6 7 6 6 5 5 5 6 5 4 5 4 4 3 3 3 4 4 5 6 5 3 3 4 6 6 7 7 7 7 7 7 6 6 6 6 6 5 10 14 13 13 14 16 18 19 22 24 23 23 23 22 23 24 25 26 26
9 7 9 8 7 9 7 8 7 8 8 7 7 7 6 6 6 5 5 6 6 5 5 6 6 6 6 6 6 7 7 8 7 6 6 7 5 5 5 5 4 4 4 4 4 5 6 6 5 5 3 4 6 6 5 5 7 9 8 5 5 5 5 6 5 5 6 7 7 7 8 11 15 18 19 22 23 22 22 21 22 23 24 24 25
9 9 8 8 7 7 7 7 8 7 7 7 6 6 6 5 6 7 6 6 5 4 4 5 5 5 5 5 6 8 8 8 7 7 7 7 6 7 7 6 5 5 5 5 4 5 6 5 5 6 6 5 5 7 5 4 6 6 8 10 8 2 4 5 7 6 7 8 8 8 10 15 18 13 16 20 21 21 20 20 20 21 23 23 25
12 11 10 9 8 7 7 7 7 6 6 6 6 6 5 5 6 7 7 6 6 5 4 4 4 5 5 6 6 7 7 7 7 6 7 7 6 6 6 5 6 6 6 4 5 5 5 5 6 5 5 6 5 6 6 4 5 4 3 5 10 11 9 6 6 9 9 7 7 6 7 10 11 12 14 16 17 18 19 18 18 19 20 24 26
9 11 10 10 9 8 6 7 7 6 6 6 6 6 7 7 7 7 7 7 6 6 5 5 4 5 5 5 6 6 7 7 9 8 8 7 6 5 6 6 6 6 4 4 5 5 4 4 6 5 6 6 6 5 5 4 4 6 6 6 9 8 9 10 7 6 6 8 9 7 6 7 10 8 9 9 9 14 14 16 14 17 21 25 26
10 10 10 10 10 11 10 9 8 8 8 7 8 13 11 8 7 6 6 6 6 5 5 5 5 5 6 5 5 8 9 10 11 12 13 13 11 8 6 7 6 5 5 5 5 5 4 5 6 4 6 7 6 5 6 5 5 6 7 7 8 9 10 10 8 2 3 6 11 12 7 4 8 9 7 10 10 10 10 10 10 16 23 26 26
11 11 10 11 11 11 12 12 11 8 7 6 13 15 14 14 8 7 6 5 5 5 6 6 7 6 5 6 5 7 9 9 10 14 14 14 13 14 13 12 10 9 8 8 6 5 5 6 5 5 7 8 8 6 6 5 5 6 7 7 8 8 9 10 12 7 1 8 10 11 11 3 6 9 8 8 9 10 10 10 19 23 24 25 26
9 8 11 12 11 10 8 8 8 8 8 10 16 16 16 17 13 8 5 5 6 6 6 6 6 5 6 6 6 4 6 7 7 8 11 13 14 14 15 15 15 17 14 12 7 5 6 5 6 8 7 9 7 6 7 6 6 7 9 9 8 8 9 9 9 12 8 10 11 12 15 3 6 8 8 7 9 9 11 17 22 23 24 25 24
8 10 12 11 11 10 10 10 10 9 8 13 16 17 17 17 17 11 5 5 6 6 7 7 7 7 6 5 5 5 5 10 8 7 7 8 11 15 16 16 17 18 18 18 16 11 6 8 9 9 9 7 9 9 8 6 7 10 9 8 8 8 8 9 10 11 11 10 11 11 14 8 6 8 9 7 8 9 12 15 21 23 25 23 24
10 10 10 11 10 10 11 11 10 9 9 13 17 17 17 18 18 14 7 6 6 6 7 7 8 8 7 7 6 7 6 7 7 8 8 8 8 7 8 11 11 13 17 20 20 21 16 11 11 12 10 9 10 9 7 6 8 9 8 7 5 6 7 9 11 11 11 8 8 10 13 6 4 9 10 9 7 9 9 17 23 23 23 22 23
12 12 12 12 11 11 10 10 10 9 8 14 17 18 18 19 18 14 6 6 5 5 6 8 9 9 8 7 8 7 6 7 7 9 8 8 6 7 9 9 7 7 7 7 9 10 12 13 14 13 11 11 12 11 8 8 9 9 6 4 4 5 8 9 9 8 8 5 7 6 8 9 8 10 9 9 10 9 8 14 21 21 21 20 23
7 6 6 7 10 11 10 10 9 9 7 16 17 19 19 18 19 10 7 7 7 7 8 7 8 7 7 8 7 7 7 7 10 16 13 8 7 9 10 10 9 7 8 9 13 14 10 9 9 10 8 9 10 8 8 8 6 5 3 2 2 3 5 9 9 2 5 4 5 7 10 11 6 10 12 10 10 10 9 9 17 19 18 20 24
8 9 9 9 8 9 10 9 9 8 8 14 19 19 19 20 15 9 9 7 8 9 9 8 7 7 8 8 8 6 8 9 11 15 16 14 8 10 10 11 10 6 9 7 16 20 21 22 22 21 22 22 21 20 19 21 12 6 2 4 6 1 6 11 11 3 4 2 4 7 8 10 7 8 13 10 10 11 11 8 9 14 18 22 22
10 9 7 6 5 6 8 9 10 10 9 12 19 19 20 22 17 12 8 7 7 9 9 8 7 7 8 13 10 8 8 8 12 16 17 14 11 11 11 11 11 11 12 8 7 9 18 22 23 23 23 22 22 24 17 9 6 3 0 6 3 1 8 6 10 8 7 4 7 5 4 6 7 7 12 11 12 6 6 7 7 11 19 17 19
7 6 6 6 5 5 7 8 7 10 9 11 19 20 22 22 17 10 8 6 6 8 6 6 6 6 6 10 16 13 11 11 15 16 18 16 11 11 11 10 13 14 13 7 8 7 8 8 10 12 14 18 15 5 5 7 4 2 1 3 1 3 9 9 7 7 9 1 3 1 5 7 8 8 7 11 9 7 5 4 7 10 12 12 13
Wind_Direction
121 124 119 113 118 100 101 96 109 116 113 105 108 112 101 98 98 97 91 95 96 92 88 83 79 77 80 74 67 62 57 57 56 51 49 48 39 31 35 38 46 50 53 53 52 50 48 47 49 48 48 48 47 47 46 45 44 42 41 41 39 37 36 36 34 33 30 28 26 22 20 18 16 13 12 12 10 8 7 5 3 2 2 2 1
125 125 121 116 106 100 91 92 82 107 111 112 103 109 108 97 96 99 104 96 91 93 93 85 78 75 76 77 68 62 59 57 54 54 53 47 42 37 34 38 40 44 48 52 52 52 51 49 49 49 49 48 46 46 47 46 44 41 40 38 36 33 31 29 27 26 25 24 23 20 19 17 16 14 12 10 8 7 6 4 2 360 357 358 359
129 131 118 121 116 106 98 101 98 93 99 99 91 82 84 92 97 100 102 103 93 92 93 90 83 77 74 74 71 67 63 58 57 56 53 46 45 41 34 36 39 41 44 48 50 50 48 49 49 48 49 48 44 44 43 42 43 41 39 37 36 35 35 32 29 26 26 25 23 20 18 15 13 12 11 9 6 5 4 3 1 -0 358 355 354
130 133 130 120 110 105 102 100 97 91 95 103 92 90 94 89 91 96 96 93 97 91 86 88 83 76 74 73 69 68 64 61 62 58 57 51 47 43 42 36 38 41 42 45 48 49 49 49 48 48 47 47 45 44 43 41 40 40 38 37 35 34 32 32 30 28 26 24 22 21 18 16 14 13 11 9 6 5 3 1 359 358 357 355 354
111 120 121 115 110 108 95 97 100 104 93 97 102 106 103 99 96 100 93 94 89 88 83 79 82 79 76 73 73 67 64 66 65 60 57 54 50 48 48 42 39 38 38 42 45 47 49 49 48 48 46 46 45 44 44 43 42 41 39 38 37 35 34 31 30 27 26 24 22 20 17 16 14 12 10 8 5 3 1 359 358 357 355 354 352
119 110 107 103 92 99 108 102 108 109 103 108 107 114 110 109 112 99 96 97 89 90 90 84 80 79 74 72 73 70 68 68 63 61 60 58 52 49 46 43 41 40 31 36 40 44 47 47 48 47 47 45 43 44 44 43 42 41 39 37 36 35 33 30 28 27 26 23 21 18 16 14 13 11 8 7 4 1 358 357 356 353 352 351 350
122 126 117 111 107 102 97 107 107 106 98 66 105 106 101 108 120 99 89 80 83 73 85 88 86 79 75 75 76 75 71 71 66 63 62 62 59 54 51 49 47 43 36 38 32 40 44 46 46 45 45 44 43 42 42 41 40 40 37 35 35 33 31 29 27 24 23 21 19 17 15 13 11 8 8 6 3 1 359 357 354 352 350 349 347
116 120 114 107 109 107 107 105 101 105 109 114 119 113 101 95 63 114 104 92 96 82 83 89 84 81 75 77 76 72 75 71 68 67 63 67 62 58 53 50 47 47 43 43 43 38 43 44 45 44 42 42 42 41 39 39 38 38 37 33 32 31 29 27 25 23 21 19 16 14 13 11 9 8 6 5 2 360 357 355 353 351 349 346 344
85 108 111 111 107 106 106 106 107 112 107 109 101 102 111 100 93 66 108 115 105 105 90 92 90 86 82 76 69 72 70 69 70 75 66 64 60 57 56 53 52 49 48 46 46 44 42 44 44 43 40 41 41 40 38 36 35 34 34 34 32 31 28 26 24 21 19 16 13 12 10 8 6 5 4 2 360 358 356 353 350 348 346 344 343
124 121 100 105 101 104 112 116 117 109 107 106 102 103 103 110 103 90 106 117 116 111 104 98 95 90 79 73 71 70 70 69 72 65 67 68 61 59 60 59 55 50 48 49 46 46 43 43 43 40 38 37 38 37 36 33 32 31 30 30 29 27 26 24 21 19 16 13 11 10 8 6 5 3 2 360 357 355 352 349 347 345 344 341 340
98 120 115 120 112 109 116 119 130 125 118 112 111 110 105 103 113 104 70 85 113 109 114 109 96 88 80 74 74 71 73 70 68 66 63 65 73 72 65 59 60 51 52 50 50 49 45 42 37 37 34 35 35 34 33 30 27 29 27 26 25 23 23 21 19 18 14 12 10 8 7 5 3 1 0 359 356 354 351 348 345 343 341 339 338
104 104 109 121 119 127 119 131 146 134 122 121 127 129 126 115 111 115 110 93 88 111 120 110 94 85 85 78 71 75 68 67 67 65 66 64 70 69 69 65 63 59 54 55 56 52 51 48 45 42 39 35 35 31 29 27 24 25 24 21 20 19 18 18 16 14 12 9 8 6 4 2 1 360 358 356 354 352 349 347 344 342 340 339 337
109 118 117 120 113 123 124 128 144 128 124 125 128 124 123 121 119 115 123 118 109 121 122 126 113 86 81 80 75 64 73 69 67 64 62 64 68 74 72 73 66 62 54 59 56 54 55 50 48 46 39 35 29 27 27 25 22 20 21 19 16 14 13 13 12 10 9 7 4 3 2 1 360 359 357 356 353 351 348 345 343 341 339 336 335
117 118 111 126 127 129 129 136 136 119 110 118 124 125 128 125 129 109 58 120 128 168 169 152 88 132 131 110 89 90 87 71 67 58 62 63 66 71 69 71 68 66 65 64 59 55 52 52 51 47 44 41 34 27 20 20 18 17 19 17 13 10 8 9 9 7 6 4 2 1 1 359 358 358 356 354 352 350 347 344 342 340 338 336 334
114 111 122 125 125 131 134 136 137 134 127 130 133 135 141 141 150 134 128 37 97 22 224 296 129 124 107 114 143 121 123 95 82 58 51 55 57 64 66 73 67 63 63 65 62 57 53 52 54 51 46 41 37 32 30 27 18 16 15 15 10 8 5 5 5 4 4 2 0 359 358 358 356 354 353 352 350 348 345 343 340 339 336 334 333
99 112 120 131 138 135 135 142 144 156 137 138 144 141 148 146 143 136 129 137 159 148 347 255 182 145 158 216 151 132 124 130 116 91 73 54 52 66 62 68 69 65 60 63 62 65 63 61 58 56 47 42 38 33 31 24 16 15 8 11 8 5 2 1 1 1 -0 359 358 357 355 355 354 352 351 349 347 345 343 339 336 336 333 331 331
98 109 131 136 133 136 138 140 141 147 143 138 148 153 155 153 152 149 162 147 153 139 98 31 241 340 145 134 107 198 186 136 152 102 94 85 48 55 67 61 69 66 67 70 73 69 74 68 66 58 48 44 37 35 30 22 16 6 6 6 4 4 1 359 359 358 357 357 355 355 353 352 352 351 349 347 345 343 340 338 334 334 332 331 332
109 121 129 136 136 136 138 140 140 142 152 140 133 135 157 161 173 158 147 177 138 134 124 41 35 49 351 352 308 186 146 171 170 134 100 49 27 54 51 49 52 66 68 72 68 77 71 75 64 58 47 40 36 34 31 27 18 11 8 359 0 1 -0 360 357 355 355 354 354 352 351 350 350 349 347 345 343 341 338 336 334 334 332 332 329
119 128 132 134 130 133 140 137 134 135 138 138 150 158 156 158 150 165 154 135 147 132 149 146 129 57 34 51 60 35 108 139 174 116 144 145 154 69 62 34 28 50 67 65 64 84 76 74 68 61 50 43 36 33 32 25 21 12 1 360 359 358 359 359 357 354 353 352 351 350 349 349 348 347 345 342 341 339 336 334 333 333 331 330 327
121 123 131 134 135 125 133 135 136 141 148 155 147 142 131 113 137 126 137 155 160 143 148 168 154 140 78 79 71 67 59 47 74 157 137 151 158 165 252 352 18 59 51 73 97 93 103 91 79 65 58 45 39 33 26 17 13 5 5 358 356 357 358 358 355 354 351 350 349 348 348 347 347 345 342 341 339 337 334 333 332 331 329 327 326
98 120 125 131 135 135 138 138 139 142 145 130 129 138 143 140 140 146 152 143 165 146 143 166 153 150 144 92 82 78 72 62 85 76 130 144 141 169 166 157 267 137 51 123 97 105 106 98 81 71 62 50 41 34 22 15 8 3 5 356 355 355 356 355 354 352 349 348 348 348 347 346 344 342 340 339 337 335 333 332 331 328 327 326 325
114 101 118 120 125 129 135 136 134 136 139 130 123 120 121 119 123 131 133 122 136 156 143 143 135 139 145 145 124 109 70 66 52 84 57 49 161 171 179 174 176 169 272 68 82 123 114 100 91 70 56 51 38 27 23 16 3 357 360 355 353 352 353 353 352 350 347 348 348 348 347 345 344 341 339 337 336 334 331 331 329 328 327 327 328
134 118 108 119 116 114 124 123 128 131 122 120 122 119 112 109 111 112 114 122 131 115 98 88 109 113 121 127 138 147 154 160 170 161 134 135 116 130 147 211 186 177 198 297 302 113 99 88 77 71 66 49 40 27 23 10 347 355 0 356 352 352 352 350 350 348 347 349 349 347 346 345 342 340 337 336 334 331 330 329 327 327 327 326 325
140 138 144 127 122 118 121 133 127 118 103 100 99 101 104 107 106 101 95 89 101 98 99 110 95 84 67 59 92 79 108 136 149 139 154 155 149 147 159 160 237 237 268 283 183 157 148 122 107 109 99 88 48 29 14 357 349 353 3 355 352 352 351 348 349 347 349 349 348 345 344 342 339 337 335 334 332 331 328 328 327 326 325 328 327
173 162 156 147 139 139 148 142 116 93 100 98 97 100 105 100 95 91 94 90 95 98 100 88 95 107 114 59 67 76 64 45 99 124 69 100 131 130 141 183 178 168 114 318 141 162 181 153 155 162 128 73 44 22 6 3 355 354 1 350 351 350 346 345 346 347 348 347 345 343 343 341 337 336 334 333 331 330 329 328 325 325 327 327 329
160 168 145 138 139 139 125 97 91 100 97 99 102 98 95 97 94 92 85 83 83 87 94 94 81 83 94 104 88 80 72 53 86 114 133 137 138 130 139 151 137 201 313 257 263 196 160 171 178 161 104 57 32 7 5 2 347 351 358 348 342 344 344 345 344 344 346 345 343 343 342 338 336 334 334 333 332 331 330 328 327 328 329 329 328
160 136 134 132 129 126 105 103 107 106 109 110 105 101 99 96 93 96 97 104 107 107 108 117 114 118 106 110 110 85 85 81 98 98 87 46 120 145 146 152 146 174 233 197 265 252 161 165 171 144 83 60 27 5 1 357 340 346 353 345 335 338 346 344 340 341 342 343 342 342 339 337 335 334 333 333 332 331 330 329 328 329 330 329 327
127 128 130 135 138 120 107 104 109 110 112 114 114 114 118 113 114 123 121 152 131 123 128 124 121 125 120 122 109 103 98 98 80 89 67 62 90 107 109 131 148 212 195 246 213 231 151 167 136 135 100 42 11 1 343 342 347 347 346 344 339 339 341 338 334 335 338 340 340 340 337 335 334 333 333 333 332 331 329 329 328 327 325 324 325
128 127 129 134 129 122 118 116 113 116 113 109 108 108 112 113 127 139 137 152 134 132 140 127 127 126 115 114 111 115 107 102 95 83 89 88 75 73 42 124 143 173 244 265 245 204 115 150 266 150 117 7 357 348 350 352 346 344 338 339 339 334 329 329 328 330 332 336 339 338 335 333 334 334 333 334 332 329 328 327 327 325 324 325 324
131 130 135 135 129 130 124 122 122 117 113 108 102 98 93 94 104 111 126 137 120 117 121 119 123 116 110 106 112 112 111 110 104 102 109 118 126 122 110 110 226 199 191 254 296 198 227 164 203 240 198 356 347 345 350 335 336 337 332 332 330 324 320 322 320 322 326 332 336 335 333 331 334 335 334 334 330 328 328 327 326 326 326 327 328
136 140 144 139 135 134 130 128 128 122 113 110 104 101 95 109 117 128 147 147 123 114 117 113 120 116 117 115 117 118 125 121 127 132 132 143 141 135 129 130 147 168 154 145 212 291 144 237 143 123 313 327 342 332 332 325 328 330 325 320 315 310 311 308 308 315 322 329 332 332 330 330 334 335 335 332 328 329 327 327 326 326 327 326 326
137 141 146 143 143 141 141 136 131 127 124 119 119 115 118 128 145 151 159 152 122 121 124 114 123 123 125 127 138 141 147 142 147 149 152 147 144 145 147 146 145 153 141 181 224 240 140 216 283 265 356 330 332 329 321 313 309 314 312 305 301 301 300 296 296 308 318 324 329 329 327 329 333 335 334 328 326 327 327 327 327 328 328 327 326
143 149 151 149 146 144 141 143 141 140 135 133 129 131 136 150 165 161 156 159 136 132 129 128 129 130 133 134 143 150 158 160 157 159 160 154 146 144 151 158 152 155 163 180 223 265 267 251 276 278 330 343 327 332 314 311 314 312 302 293 293 292 292 292 297 301 314 322 326 327 325 329 333 336 332 325 325 327 328 328 329 329 328 328 327
149 150 150 146 145 143 142 142 142 140 136 131 134 139 152 159 164 173 168 156 143 139 139 138 142 139 139 140 150 158 176 166 163 172 166 161 165 159 173 172 167 164 182 179 233 248 273 169 256 265 274 340 295 305 313 313 311 309 303 297 290 288 289 296 301 303 313 320 326 327 325 328 333 335 328 323 324 327 328 329 330 329 329 329 328
148 153 150 147 146 145 143 145 145 142 142 138 145 152 163 168 170 176 175 164 158 153 157 157 151 146 148 154 158 162 167 170 180 177 166 173 173 182 172 174 173 176 179 200 186 246 272 285 243 255 267 292 293 304 305 295 293 293 295 297 301 294 286 295 298 299 310 320 328 326 321 324 330 331 324 319 322 326 327 330 330 330 330 329 329
149 148 148 146 146 150 144 147 149 146 145 148 152 167 173 179 183 175 170 171 168 166 158 155 155 161 162 156 171 171 176 180 181 181 183 181 185 186 177 178 182 182 179 185 215 232 266 274 256 213 282 303 288 292 292 284 282 282 287 293 287 287 295 293 296 300 307 320 324 320 316 319 326 328 320 316 320 324 328 330 331 331 331 331 330
149 144 146 149 148 151 156 158 157 156 156 155 162 171 179 188 191 176 170 166 171 170 166 161 163 167 173 178 167 172 179 184 186 193 187 189 191 186 188 182 188 185 175 195 208 225 241 256 275 267 270 275 282 285 284 294 297 293 287 279 287 294 297 293 290 293 309 317 318 313 309 315 322 324 318 315 318 323 327 328 330 331 331 331 330
151 155 151 158 158 158 156 157 155 155 156 159 166 169 174 178 180 178 174 169 169 165 164 168 174 182 177 181 177 180 186 191 194 188 188 194 185 194 189 192 188 186 195 201 208 223 241 256 264 283 263 276 292 278 272 279 307 312 308 291 281 278 301 306 303 314 311 309 315 313 310 312 316 316 311 310 315 322 325 329 330 330 330 330 329
156 153 156 153 161 154 152 152 159 157 156 157 164 166 173 181 177 171 164 166 167 163 169 174 182 186 189 189 187 193 197 200 191 191 187 190 193 198 195 189 189 186 202 203 207 225 235 251 261 258 276 266 265 285 287 286 292 293 307 322 316 282 309 315 316 318 311 305 295 288 301 309 312 310 304 306 313 319 325 326 327 328 328 328 327
168 166 159 157 150 155 152 153 149 145 147 156 162 166 173 175 172 175 170 164 166 172 173 182 187 194 198 201 201 204 206 204 199 195 187 193 190 198 197 187 191 193 201 203 208 220 230 242 252 264 264 276 276 265 274 276 292 290 302 321 309 316 319 319 317 319 315 306 305 299 291 300 310 305 301 303 306 315 321 323 323 325 325 329 328
169 167 163 158 150 149 143 145 146 148 161 171 173 170 165 181 183 170 168 170 168 167 174 185 196 201 208 209 211 212 214 214 214 209 206 196 180 193 195 189 193 196 199 202 212 214 231 238 252 253 265 266 263 279 281 279 298 301 310 310 297 299 307 311 310 305 297 309 307 297 296 315 313 313 315 309 310 317 316 321 321 322 326 329 327
165 162 160 161 163 162 157 159 161 170 179 180 177 180 185 178 167 166 164 170 172 173 176 185 198 206 210 210 217 218 215 215 217 217 213 210 208 203 186 188 190 192 195 195 209 215 218 231 239 243 259 261 260 262 275 279 291 295 300 304 301 306 313 305 302 258 309 315 316 309 302 303 309 309 313 310 312 317 315 320 319 322 325 325 326
166 163 160 163 169 171 174 172 174 177 174 173 179 187 186 183 175 168 170 173 180 180 185 189 200 202 206 211 216 219 219 219 221 224 223 218 218 217 211 204 198 187 179 201 215 204 211 231 237 232 244 262 262 261 264 284 285 291 296 296 296 304 310 320 315 317 55 346 318 308 304 331 317 309 306 301 309 317 314 310 316 321 324 325 326
167 162 168 176 175 172 169 167 170 172 180 182 184 187 188 186 182 175 168 174 181 192 194 198 201 193 203 206 214 206 219 216 215 225 229 227 227 226 224 220 217 214 205 190 194 204 216 220 234 235 237 249 265 260 268 279 281 287 290 289 283 287 295 297 293 296 312 338 320 310 298 335 319 300 296 302 312 314 308 310 315 319 323 324 325
161 172 181 173 175 171 168 168 176 181 185 183 186 187 189 189 187 179 172 178 186 197 200 200 199 200 191 200 211 214 213 217 222 221 222 232 237 237 234 234 232 228 226 224 220 220 211 225 242 249 234 249 262 261 261 261 275 284 284 276 271 269 274 280 285 294 305 323 311 300 294 311 318 307 303 304 310 315 311 311 313 317 321 321 324
177 181 180 179 172 172 176 178 180 180 183 186 187 186 189 193 192 185 178 184 197 198 201 201 205 205 194 189 204 220 204 202 214 215 217 219 224 238 244 241 240 239 239 238 239 236 230 227 235 239 244 242 247 254 252 237 262 275 266 255 255 269 272 274 289 289 294 306 292 302 294 300 340 314 304 307 313 310 307 305 311 313 316 319 323
181 183 180 178 182 180 180 180 178 182 184 183 186 189 195 197 197 189 184 189 196 209 210 208 210 201 194 197 210 222 201 201 205 208 210 212 213 225 234 242 243 239 237 240 242 241 238 238 237 238 243 242 247 253 242 242 245 259 241 224 241 271 288 294 285 274 284 270 270 282 278 305 333 309 301 310 312 305 303 307 308 309 311 317 323
180 173 182 185 184 184 182 179 176 182 181 186 191 194 198 200 199 194 180 188 200 208 213 213 212 202 196 203 207 213 214 218 214 215 215 202 207 221 231 241 244 243 241 236 245 245 241 244 248 252 249 244 244 237 235 233 241 231 213 237 255 295 310 302 291 271 260 253 246 263 277 290 317 302 302 310 308 304 309 305 302 307 309 316 321
177 185 189 191 186 181 179 178 179 184 185 193 195 199 200 202 199 203 195 191 203 214 219 210 200 196 201 203 208 202 217 225 219 217 220 209 210 216 228 238 241 245 249 239 245 247 246 246 247 247 249 250 251 254 249 242 225 209 216 282 292 30 301 302 297 283 277 230 254 256 272 286 301 311 305 307 304 301 301 298 299 303 309 315 316
186 189 185 176 180 181 181 185 188 188 194 196 199 203 205 204 202 203 199 190 202 217 230 221 191 209 202 206 205 203 208 222 218 222 223 218 221 216 223 234 244 249 253 238 239 236 243 246 247 247 247 248 249 252 249 230 220 267 76 285 306 308 284 274 284 296 297 274 269 257 257 263 303 315 309 304 298 261 277 292 295 310 312 312 315
180 166 168 175 179 189 194 195 185 198 204 202 205 208 207 208 205 208 203 196 198 224 223 228 213 205 207 209 210 210 215 224 221 223 225 221 225 221 217 230 241 245 246 223 230 229 226 231 243 244 248 249 252 217 167 196 196 132 182 251 239 246 276 279 274 298 304 262 197 184 292 295 314 310 324 324 311 290 239 292 321 315 310 314 313